owner,sensor,date,latitude,longitude,air_temperature,qcFlag 
COMPS,ioos:station:USF.COMPS:ARP:1,2016-11-18T22:00:00Z,28.4330,-82.6670,22.68,1111122 
COMPS,ioos:station:USF.COMPS:ARP:1,2016-11-18T22:06:00Z,28.4330,-82.6670,22.37,1111122 
COMPS,ioos:station:USF.COMPS:ARP:1,2016-11-18T22:12:00Z,28.4330,-82.6670,22.15,1111122 
COMPS,ioos:station:USF.COMPS:ARP:1,2016-11-18T22:18:00Z,28.4330,-82.6670,21.94,1111122 
COMPS,ioos:station:USF.COMPS:ARP:1,2016-11-18T22:24:00Z,28.4330,-82.6670,21.89,1111122 
COMPS,ioos:station:USF.COMPS:ARP:1,2016-11-18T22:30:00Z,28.4330,-82.6670,21.8,1111122 
COMPS,ioos:station:USF.COMPS:ARP:1,2016-11-18T22:36:00Z,28.4330,-82.6670,21.58,1111122 
COMPS,ioos:station:USF.COMPS:ARP:1,2016-11-18T22:42:00Z,28.4330,-82.6670,21.38,1111122 
COMPS,ioos:station:USF.COMPS:ARP:1,2016-11-18T22:48:00Z,28.4330,-82.6670,21.17,1111122 
COMPS,ioos:station:USF.COMPS:ARP:1,2016-11-18T22:54:00Z,28.4330,-82.6670,21.17,1111122 
COMPS,ioos:station:USF.COMPS:ARP:1,2016-11-18T23:00:00Z,28.4330,-82.6670,20.84,1111122 
COMPS,ioos:station:USF.COMPS:ARP:1,2016-11-18T23:06:00Z,28.4330,-82.6670,20.75,1111122 
COMPS,ioos:station:USF.COMPS:ARP:1,2016-11-18T23:12:00Z,28.4330,-82.6670,20.65,1111122 
COMPS,ioos:station:USF.COMPS:ARP:1,2016-11-18T23:18:00Z,28.4330,-82.6670,20.57,1111122 
COMPS,ioos:station:USF.COMPS:ARP:1,2016-11-18T23:24:00Z,28.4330,-82.6670,20.57,1111122 
COMPS,ioos:station:USF.COMPS:ARP:1,2016-11-18T23:30:00Z,28.4330,-82.6670,20.46,1111122 
COMPS,ioos:station:USF.COMPS:ARP:1,2016-11-18T23:36:00Z,28.4330,-82.6670,20.38,1111122 
COMPS,ioos:station:USF.COMPS:ARP:1,2016-11-18T23:42:00Z,28.4330,-82.6670,20.27,1111122 
COMPS,ioos:station:USF.COMPS:ARP:1,2016-11-18T23:48:00Z,28.4330,-82.6670,19.95,1111122 
COMPS,ioos:station:USF.COMPS:ARP:1,2016-11-18T23:54:00Z,28.4330,-82.6670,19.87,1111122 
COMPS,ioos:station:USF.COMPS:ARP:1,2016-11-19T00:00:00Z,28.4330,-82.6670,19.66,1111122 
COMPS,ioos:station:USF.COMPS:ARP:1,2016-11-19T00:06:00Z,28.4330,-82.6670,19.54,1111122 
COMPS,ioos:station:USF.COMPS:ARP:1,2016-11-19T00:12:00Z,28.4330,-82.6670,19.33,1111122 
COMPS,ioos:station:USF.COMPS:ARP:1,2016-11-19T00:18:00Z,28.4330,-82.6670,19.11,1111122 
COMPS,ioos:station:USF.COMPS:ARP:1,2016-11-19T00:24:00Z,28.4330,-82.6670,18.87,1111122 
COMPS,ioos:station:USF.COMPS:ARP:1,2016-11-19T00:30:00Z,28.4330,-82.6670,18.74,1111122 
COMPS,ioos:station:USF.COMPS:ARP:1,2016-11-19T00:36:00Z,28.4330,-82.6670,18.66,1111122 
COMPS,ioos:station:USF.COMPS:ARP:1,2016-11-19T00:42:00Z,28.4330,-82.6670,18.51,1111122 
COMPS,ioos:station:USF.COMPS:ARP:1,2016-11-19T00:48:00Z,28.4330,-82.6670,18.39,1111122 
COMPS,ioos:station:USF.COMPS:ARP:1,2016-11-19T00:54:00Z,28.4330,-82.6670,18.42,1111122 
COMPS,ioos:station:USF.COMPS:ARP:1,2016-11-19T01:00:00Z,28.4330,-82.6670,18.2,1111122 
COMPS,ioos:station:USF.COMPS:ARP:1,2016-11-19T01:06:00Z,28.4330,-82.6670,18.14,1111122 
COMPS,ioos:station:USF.COMPS:ARP:1,2016-11-19T01:12:00Z,28.4330,-82.6670,18.02,1111122 
COMPS,ioos:station:USF.COMPS:ARP:1,2016-11-19T01:18:00Z,28.4330,-82.6670,18.02,1111122 
COMPS,ioos:station:USF.COMPS:ARP:1,2016-11-19T01:24:00Z,28.4330,-82.6670,17.94,1111122 
COMPS,ioos:station:USF.COMPS:ARP:1,2016-11-19T01:30:00Z,28.4330,-82.6670,17.84,1111122 
COMPS,ioos:station:USF.COMPS:ARP:1,2016-11-19T01:36:00Z,28.4330,-82.6670,17.74,1111122 
COMPS,ioos:station:USF.COMPS:ARP:1,2016-11-19T01:42:00Z,28.4330,-82.6670,17.75,1111122 
COMPS,ioos:station:USF.COMPS:ARP:1,2016-11-19T01:48:00Z,28.4330,-82.6670,17.78,1111122 
COMPS,ioos:station:USF.COMPS:ARP:1,2016-11-19T01:54:00Z,28.4330,-82.6670,17.79,1111122 
COMPS,ioos:station:USF.COMPS:ARP:1,2016-11-19T02:00:00Z,28.4330,-82.6670,17.48,1111122 
COMPS,ioos:station:USF.COMPS:ARP:1,2016-11-19T02:06:00Z,28.4330,-82.6670,17.38,1111122 
COMPS,ioos:station:USF.COMPS:ARP:1,2016-11-19T02:12:00Z,28.4330,-82.6670,17.28,1111122 
COMPS,ioos:station:USF.COMPS:ARP:1,2016-11-19T02:18:00Z,28.4330,-82.6670,17.23,1111122 
COMPS,ioos:station:USF.COMPS:ARP:1,2016-11-19T02:24:00Z,28.4330,-82.6670,17.21,1111122 
COMPS,ioos:station:USF.COMPS:ARP:1,2016-11-19T02:30:00Z,28.4330,-82.6670,17.18,1111122 
COMPS,ioos:station:USF.COMPS:ARP:1,2016-11-19T02:36:00Z,28.4330,-82.6670,17.12,1111122 
COMPS,ioos:station:USF.COMPS:ARP:1,2016-11-19T02:42:00Z,28.4330,-82.6670,17.09,1111122 
COMPS,ioos:station:USF.COMPS:ARP:1,2016-11-19T02:48:00Z,28.4330,-82.6670,17.07,1111122 
COMPS,ioos:station:USF.COMPS:ARP:1,2016-11-19T02:54:00Z,28.4330,-82.6670,17.17,1111122 
COMPS,ioos:station:USF.COMPS:ARP:1,2016-11-19T03:00:00Z,28.4330,-82.6670,16.96,1111122 
COMPS,ioos:station:USF.COMPS:ARP:1,2016-11-19T03:06:00Z,28.4330,-82.6670,17.06,1111122 
COMPS,ioos:station:USF.COMPS:ARP:1,2016-11-19T03:12:00Z,28.4330,-82.6670,17.03,1111122 
COMPS,ioos:station:USF.COMPS:ARP:1,2016-11-19T03:18:00Z,28.4330,-82.6670,17.03,1111122 
COMPS,ioos:station:USF.COMPS:ARP:1,2016-11-19T03:24:00Z,28.4330,-82.6670,17.07,1111122 
COMPS,ioos:station:USF.COMPS:ARP:1,2016-11-19T03:30:00Z,28.4330,-82.6670,17.04,1111122 
COMPS,ioos:station:USF.COMPS:ARP:1,2016-11-19T03:36:00Z,28.4330,-82.6670,16.92,1111122 
COMPS,ioos:station:USF.COMPS:ARP:1,2016-11-19T03:42:00Z,28.4330,-82.6670,16.86,1111122 
COMPS,ioos:station:USF.COMPS:ARP:1,2016-11-19T03:48:00Z,28.4330,-82.6670,16.81,1111122 
COMPS,ioos:station:USF.COMPS:ARP:1,2016-11-19T03:54:00Z,28.4330,-82.6670,16.88,1111122 
COMPS,ioos:station:USF.COMPS:ARP:1,2016-11-19T04:00:00Z,28.4330,-82.6670,16.7,1111122 
COMPS,ioos:station:USF.COMPS:ARP:1,2016-11-19T04:06:00Z,28.4330,-82.6670,16.65,1111122 
COMPS,ioos:station:USF.COMPS:ARP:1,2016-11-19T04:12:00Z,28.4330,-82.6670,16.61,1111122 
COMPS,ioos:station:USF.COMPS:ARP:1,2016-11-19T04:18:00Z,28.4330,-82.6670,16.55,1111122 
COMPS,ioos:station:USF.COMPS:ARP:1,2016-11-19T04:24:00Z,28.4330,-82.6670,16.53,1111122 
COMPS,ioos:station:USF.COMPS:ARP:1,2016-11-19T04:30:00Z,28.4330,-82.6670,16.5,1111122 
COMPS,ioos:station:USF.COMPS:ARP:1,2016-11-19T04:36:00Z,28.4330,-82.6670,16.39,1111122 
COMPS,ioos:station:USF.COMPS:ARP:1,2016-11-19T04:42:00Z,28.4330,-82.6670,16.33,1111122 
COMPS,ioos:station:USF.COMPS:ARP:1,2016-11-19T04:48:00Z,28.4330,-82.6670,16.25,1111122 
COMPS,ioos:station:USF.COMPS:ARP:1,2016-11-19T04:54:00Z,28.4330,-82.6670,16.32,1111122 
COMPS,ioos:station:USF.COMPS:ARP:1,2016-11-19T05:00:00Z,28.4330,-82.6670,16.25,1111122 
COMPS,ioos:station:USF.COMPS:ARP:1,2016-11-19T05:06:00Z,28.4330,-82.6670,16.25,1111122 
COMPS,ioos:station:USF.COMPS:ARP:1,2016-11-19T05:12:00Z,28.4330,-82.6670,16.25,1111122 
COMPS,ioos:station:USF.COMPS:ARP:1,2016-11-19T05:18:00Z,28.4330,-82.6670,16.13,1111122 
COMPS,ioos:station:USF.COMPS:ARP:1,2016-11-19T05:24:00Z,28.4330,-82.6670,16.1,1111122 
COMPS,ioos:station:USF.COMPS:ARP:1,2016-11-19T05:30:00Z,28.4330,-82.6670,15.98,1111122 
COMPS,ioos:station:USF.COMPS:ARP:1,2016-11-19T05:36:00Z,28.4330,-82.6670,15.87,1111122 
COMPS,ioos:station:USF.COMPS:ARP:1,2016-11-19T05:42:00Z,28.4330,-82.6670,15.84,1111122 
COMPS,ioos:station:USF.COMPS:ARP:1,2016-11-19T05:48:00Z,28.4330,-82.6670,15.75,1111122 
COMPS,ioos:station:USF.COMPS:ARP:1,2016-11-19T05:54:00Z,28.4330,-82.6670,15.69,1111122 
COMPS,ioos:station:USF.COMPS:ARP:1,2016-11-19T06:00:00Z,28.4330,-82.6670,15.45,1111122 
COMPS,ioos:station:USF.COMPS:ARP:1,2016-11-19T06:06:00Z,28.4330,-82.6670,15.24,1111122 
COMPS,ioos:station:USF.COMPS:ARP:1,2016-11-19T06:12:00Z,28.4330,-82.6670,15.3,1111122 
COMPS,ioos:station:USF.COMPS:ARP:1,2016-11-19T06:18:00Z,28.4330,-82.6670,15.32,1111122 
COMPS,ioos:station:USF.COMPS:ARP:1,2016-11-19T06:24:00Z,28.4330,-82.6670,15.44,1111122 
COMPS,ioos:station:USF.COMPS:ARP:1,2016-11-19T06:30:00Z,28.4330,-82.6670,15.37,1111122 
COMPS,ioos:station:USF.COMPS:ARP:1,2016-11-19T06:36:00Z,28.4330,-82.6670,15.32,1111122 
COMPS,ioos:station:USF.COMPS:ARP:1,2016-11-19T06:42:00Z,28.4330,-82.6670,15.34,1111122 
COMPS,ioos:station:USF.COMPS:ARP:1,2016-11-19T06:48:00Z,28.4330,-82.6670,15.31,1111122 
COMPS,ioos:station:USF.COMPS:ARP:1,2016-11-19T06:54:00Z,28.4330,-82.6670,15.39,1111122 
COMPS,ioos:station:USF.COMPS:ARP:1,2016-11-19T07:00:00Z,28.4330,-82.6670,15.19,1111122 
COMPS,ioos:station:USF.COMPS:ARP:1,2016-11-19T07:06:00Z,28.4330,-82.6670,15.08,1111122 
COMPS,ioos:station:USF.COMPS:ARP:1,2016-11-19T07:12:00Z,28.4330,-82.6670,15.05,1111122 
COMPS,ioos:station:USF.COMPS:ARP:1,2016-11-19T07:18:00Z,28.4330,-82.6670,15.12,1111122 
COMPS,ioos:station:USF.COMPS:ARP:1,2016-11-19T07:24:00Z,28.4330,-82.6670,15.1,1111122 
COMPS,ioos:station:USF.COMPS:ARP:1,2016-11-19T07:30:00Z,28.4330,-82.6670,15.05,1111122 
COMPS,ioos:station:USF.COMPS:ARP:1,2016-11-19T07:36:00Z,28.4330,-82.6670,15.05,1111122 
COMPS,ioos:station:USF.COMPS:ARP:1,2016-11-19T07:42:00Z,28.4330,-82.6670,15.08,1111122 
COMPS,ioos:station:USF.COMPS:ARP:1,2016-11-19T07:48:00Z,28.4330,-82.6670,15.17,1111122 
COMPS,ioos:station:USF.COMPS:ARP:1,2016-11-19T07:54:00Z,28.4330,-82.6670,15.32,1111122 
COMPS,ioos:station:USF.COMPS:ARP:1,2016-11-19T08:00:00Z,28.4330,-82.6670,15.15,1111122 
COMPS,ioos:station:USF.COMPS:ARP:1,2016-11-19T08:06:00Z,28.4330,-82.6670,15.04,1111122 
COMPS,ioos:station:USF.COMPS:ARP:1,2016-11-19T08:12:00Z,28.4330,-82.6670,14.92,1111122 
COMPS,ioos:station:USF.COMPS:ARP:1,2016-11-19T08:18:00Z,28.4330,-82.6670,14.91,1111122 
COMPS,ioos:station:USF.COMPS:ARP:1,2016-11-19T08:24:00Z,28.4330,-82.6670,14.95,1111122 
COMPS,ioos:station:USF.COMPS:ARP:1,2016-11-19T08:30:00Z,28.4330,-82.6670,14.93,1111122 
COMPS,ioos:station:USF.COMPS:ARP:1,2016-11-19T08:36:00Z,28.4330,-82.6670,15.06,1111122 
COMPS,ioos:station:USF.COMPS:ARP:1,2016-11-19T08:42:00Z,28.4330,-82.6670,14.88,1111122 
COMPS,ioos:station:USF.COMPS:ARP:1,2016-11-19T08:48:00Z,28.4330,-82.6670,14.95,1111122 
COMPS,ioos:station:USF.COMPS:ARP:1,2016-11-19T08:54:00Z,28.4330,-82.6670,15.01,1111122 
COMPS,ioos:station:USF.COMPS:ARP:1,2016-11-19T09:00:00Z,28.4330,-82.6670,14.85,1111122 
COMPS,ioos:station:USF.COMPS:ARP:1,2016-11-19T09:06:00Z,28.4330,-82.6670,14.96,1111122 
COMPS,ioos:station:USF.COMPS:ARP:1,2016-11-19T09:12:00Z,28.4330,-82.6670,15.03,1111122 
COMPS,ioos:station:USF.COMPS:ARP:1,2016-11-19T09:18:00Z,28.4330,-82.6670,14.97,1111122 
COMPS,ioos:station:USF.COMPS:ARP:1,2016-11-19T09:24:00Z,28.4330,-82.6670,14.99,1111122 
COMPS,ioos:station:USF.COMPS:ARP:1,2016-11-19T09:30:00Z,28.4330,-82.6670,15.05,1111122 
COMPS,ioos:station:USF.COMPS:ARP:1,2016-11-19T09:36:00Z,28.4330,-82.6670,15.0,1111122 
COMPS,ioos:station:USF.COMPS:ARP:1,2016-11-19T09:42:00Z,28.4330,-82.6670,14.85,1111122 
COMPS,ioos:station:USF.COMPS:ARP:1,2016-11-19T09:48:00Z,28.4330,-82.6670,14.77,1111122 
COMPS,ioos:station:USF.COMPS:ARP:1,2016-11-19T09:54:00Z,28.4330,-82.6670,14.65,1111122 
COMPS,ioos:station:USF.COMPS:ARP:1,2016-11-19T10:00:00Z,28.4330,-82.6670,14.52,1111122 
COMPS,ioos:station:USF.COMPS:ARP:1,2016-11-19T10:06:00Z,28.4330,-82.6670,14.64,1111122 
COMPS,ioos:station:USF.COMPS:ARP:1,2016-11-19T10:12:00Z,28.4330,-82.6670,14.66,1111122 
COMPS,ioos:station:USF.COMPS:ARP:1,2016-11-19T10:18:00Z,28.4330,-82.6670,14.71,1111122 
COMPS,ioos:station:USF.COMPS:ARP:1,2016-11-19T10:24:00Z,28.4330,-82.6670,14.57,1111122 
COMPS,ioos:station:USF.COMPS:ARP:1,2016-11-19T10:30:00Z,28.4330,-82.6670,14.36,1111122 
COMPS,ioos:station:USF.COMPS:ARP:1,2016-11-19T10:36:00Z,28.4330,-82.6670,14.18,1111122 
COMPS,ioos:station:USF.COMPS:ARP:1,2016-11-19T10:42:00Z,28.4330,-82.6670,14.31,1111122 
COMPS,ioos:station:USF.COMPS:ARP:1,2016-11-19T10:48:00Z,28.4330,-82.6670,14.23,1111122 
COMPS,ioos:station:USF.COMPS:ARP:1,2016-11-19T10:54:00Z,28.4330,-82.6670,14.31,1111122 
COMPS,ioos:station:USF.COMPS:ARP:1,2016-11-19T11:00:00Z,28.4330,-82.6670,14.19,1111122 
COMPS,ioos:station:USF.COMPS:ARP:1,2016-11-19T11:06:00Z,28.4330,-82.6670,14.1,1111122 
COMPS,ioos:station:USF.COMPS:ARP:1,2016-11-19T11:12:00Z,28.4330,-82.6670,14.09,1111122 
COMPS,ioos:station:USF.COMPS:ARP:1,2016-11-19T11:18:00Z,28.4330,-82.6670,14.06,1111122 
COMPS,ioos:station:USF.COMPS:ARP:1,2016-11-19T11:24:00Z,28.4330,-82.6670,14.09,1111122 
COMPS,ioos:station:USF.COMPS:ARP:1,2016-11-19T11:30:00Z,28.4330,-82.6670,14.09,1111122 
COMPS,ioos:station:USF.COMPS:ARP:1,2016-11-19T11:36:00Z,28.4330,-82.6670,14.03,1111122 
COMPS,ioos:station:USF.COMPS:ARP:1,2016-11-19T11:42:00Z,28.4330,-82.6670,13.96,1111122 
COMPS,ioos:station:USF.COMPS:ARP:1,2016-11-19T11:48:00Z,28.4330,-82.6670,13.86,1111122 
COMPS,ioos:station:USF.COMPS:ARP:1,2016-11-19T11:54:00Z,28.4330,-82.6670,14.07,1111122 
COMPS,ioos:station:USF.COMPS:ARP:1,2016-11-19T12:00:00Z,28.4330,-82.6670,13.97,1111122 
COMPS,ioos:station:USF.COMPS:ARP:1,2016-11-19T12:06:00Z,28.4330,-82.6670,13.97,1111122 
COMPS,ioos:station:USF.COMPS:ARP:1,2016-11-19T12:12:00Z,28.4330,-82.6670,14.04,1111122 
COMPS,ioos:station:USF.COMPS:ARP:1,2016-11-19T12:18:00Z,28.4330,-82.6670,13.9,1111122 
COMPS,ioos:station:USF.COMPS:ARP:1,2016-11-19T12:24:00Z,28.4330,-82.6670,13.97,1111122 
COMPS,ioos:station:USF.COMPS:ARP:1,2016-11-19T12:30:00Z,28.4330,-82.6670,13.98,1111122 
COMPS,ioos:station:USF.COMPS:ARP:1,2016-11-19T12:36:00Z,28.4330,-82.6670,14.09,1111122 
COMPS,ioos:station:USF.COMPS:ARP:1,2016-11-19T12:42:00Z,28.4330,-82.6670,14.32,1111122 
COMPS,ioos:station:USF.COMPS:ARP:1,2016-11-19T12:48:00Z,28.4330,-82.6670,14.57,1111122 
COMPS,ioos:station:USF.COMPS:ARP:1,2016-11-19T12:54:00Z,28.4330,-82.6670,14.96,1111122 
COMPS,ioos:station:USF.COMPS:ARP:1,2016-11-19T13:00:00Z,28.4330,-82.6670,15.16,1111122 
COMPS,ioos:station:USF.COMPS:ARP:1,2016-11-19T13:06:00Z,28.4330,-82.6670,15.61,1111122 
COMPS,ioos:station:USF.COMPS:ARP:1,2016-11-19T13:12:00Z,28.4330,-82.6670,15.96,1111122 
COMPS,ioos:station:USF.COMPS:ARP:1,2016-11-19T13:18:00Z,28.4330,-82.6670,16.09,1111122 
COMPS,ioos:station:USF.COMPS:ARP:1,2016-11-19T13:24:00Z,28.4330,-82.6670,16.39,1111122 
COMPS,ioos:station:USF.COMPS:ARP:1,2016-11-19T13:30:00Z,28.4330,-82.6670,16.86,1111122 
COMPS,ioos:station:USF.COMPS:ARP:1,2016-11-19T13:36:00Z,28.4330,-82.6670,17.22,1111122 
COMPS,ioos:station:USF.COMPS:ARP:1,2016-11-19T13:42:00Z,28.4330,-82.6670,17.62,1111122 
COMPS,ioos:station:USF.COMPS:ARP:1,2016-11-19T13:48:00Z,28.4330,-82.6670,18.02,1111122 
COMPS,ioos:station:USF.COMPS:ARP:1,2016-11-19T13:54:00Z,28.4330,-82.6670,18.57,1111122 
COMPS,ioos:station:USF.COMPS:ARP:1,2016-11-19T14:00:00Z,28.4330,-82.6670,18.69,1111122 
COMPS,ioos:station:USF.COMPS:ARP:1,2016-11-19T14:06:00Z,28.4330,-82.6670,18.95,1111122 
COMPS,ioos:station:USF.COMPS:ARP:1,2016-11-19T14:12:00Z,28.4330,-82.6670,19.32,1111122 
COMPS,ioos:station:USF.COMPS:ARP:1,2016-11-19T14:18:00Z,28.4330,-82.6670,19.68,1111122 
COMPS,ioos:station:USF.COMPS:ARP:1,2016-11-19T14:24:00Z,28.4330,-82.6670,20.06,1111122 
COMPS,ioos:station:USF.COMPS:ARP:1,2016-11-19T14:30:00Z,28.4330,-82.6670,20.52,1111122 
COMPS,ioos:station:USF.COMPS:ARP:1,2016-11-19T14:36:00Z,28.4330,-82.6670,20.91,1111122 
COMPS,ioos:station:USF.COMPS:ARP:1,2016-11-19T14:42:00Z,28.4330,-82.6670,21.36,1111122 
COMPS,ioos:station:USF.COMPS:ARP:1,2016-11-19T14:48:00Z,28.4330,-82.6670,21.83,1111122 
COMPS,ioos:station:USF.COMPS:ARP:1,2016-11-19T14:54:00Z,28.4330,-82.6670,22.18,1111122 
COMPS,ioos:station:USF.COMPS:ARP:1,2016-11-19T15:00:00Z,28.4330,-82.6670,21.75,1111122 
COMPS,ioos:station:USF.COMPS:ARP:1,2016-11-19T15:06:00Z,28.4330,-82.6670,21.49,1111122 
COMPS,ioos:station:USF.COMPS:ARP:1,2016-11-19T15:12:00Z,28.4330,-82.6670,21.35,1111122 
COMPS,ioos:station:USF.COMPS:ARP:1,2016-11-19T15:18:00Z,28.4330,-82.6670,21.26,1111122 
COMPS,ioos:station:USF.COMPS:ARP:1,2016-11-19T15:24:00Z,28.4330,-82.6670,21.69,1111122 
COMPS,ioos:station:USF.COMPS:ARP:1,2016-11-19T15:30:00Z,28.4330,-82.6670,21.09,1111122 
COMPS,ioos:station:USF.COMPS:ARP:1,2016-11-19T15:36:00Z,28.4330,-82.6670,20.97,1111122 
COMPS,ioos:station:USF.COMPS:ARP:1,2016-11-19T15:42:00Z,28.4330,-82.6670,21.01,1111122 
COMPS,ioos:station:USF.COMPS:ARP:1,2016-11-19T15:48:00Z,28.4330,-82.6670,20.97,1111122 
COMPS,ioos:station:USF.COMPS:ARP:1,2016-11-19T15:54:00Z,28.4330,-82.6670,21.06,1111122 
COMPS,ioos:station:USF.COMPS:ARP:1,2016-11-19T16:00:00Z,28.4330,-82.6670,21.32,1111122 
COMPS,ioos:station:USF.COMPS:ARP:1,2016-11-19T16:06:00Z,28.4330,-82.6670,21.31,1111122 
COMPS,ioos:station:USF.COMPS:ARP:1,2016-11-19T16:12:00Z,28.4330,-82.6670,21.08,1111122 
COMPS,ioos:station:USF.COMPS:ARP:1,2016-11-19T16:18:00Z,28.4330,-82.6670,20.94,1111122 
COMPS,ioos:station:USF.COMPS:ARP:1,2016-11-19T16:24:00Z,28.4330,-82.6670,21.01,1111122 
COMPS,ioos:station:USF.COMPS:ARP:1,2016-11-19T16:30:00Z,28.4330,-82.6670,20.8,1111122 
COMPS,ioos:station:USF.COMPS:ARP:1,2016-11-19T16:36:00Z,28.4330,-82.6670,20.74,1111122 
COMPS,ioos:station:USF.COMPS:ARP:1,2016-11-19T16:42:00Z,28.4330,-82.6670,20.68,1111122 
COMPS,ioos:station:USF.COMPS:ARP:1,2016-11-19T16:48:00Z,28.4330,-82.6670,20.69,1111122 
COMPS,ioos:station:USF.COMPS:ARP:1,2016-11-19T16:54:00Z,28.4330,-82.6670,20.85,1111122 
COMPS,ioos:station:USF.COMPS:ARP:1,2016-11-19T17:00:00Z,28.4330,-82.6670,20.78,1111122 
COMPS,ioos:station:USF.COMPS:ARP:1,2016-11-19T17:06:00Z,28.4330,-82.6670,20.84,1111122 
COMPS,ioos:station:USF.COMPS:ARP:1,2016-11-19T17:12:00Z,28.4330,-82.6670,20.98,1111122 
COMPS,ioos:station:USF.COMPS:ARP:1,2016-11-19T17:18:00Z,28.4330,-82.6670,21.1,1111122 
COMPS,ioos:station:USF.COMPS:ARP:1,2016-11-19T17:24:00Z,28.4330,-82.6670,21.22,1111122 
COMPS,ioos:station:USF.COMPS:ARP:1,2016-11-19T17:30:00Z,28.4330,-82.6670,21.32,1111122 
COMPS,ioos:station:USF.COMPS:ARP:1,2016-11-19T17:36:00Z,28.4330,-82.6670,21.41,1111122 
COMPS,ioos:station:USF.COMPS:ARP:1,2016-11-19T17:42:00Z,28.4330,-82.6670,21.47,1111122 
COMPS,ioos:station:USF.COMPS:ARP:1,2016-11-19T17:48:00Z,28.4330,-82.6670,21.51,1111122 
COMPS,ioos:station:USF.COMPS:ARP:1,2016-11-19T17:54:00Z,28.4330,-82.6670,21.5,1111122 
COMPS,ioos:station:USF.COMPS:ARP:1,2016-11-19T18:00:00Z,28.4330,-82.6670,21.38,1111122 
COMPS,ioos:station:USF.COMPS:ARP:1,2016-11-19T18:06:00Z,28.4330,-82.6670,21.53,1111122 
COMPS,ioos:station:USF.COMPS:ARP:1,2016-11-19T18:12:00Z,28.4330,-82.6670,21.47,1111122 
COMPS,ioos:station:USF.COMPS:ARP:1,2016-11-19T18:18:00Z,28.4330,-82.6670,21.57,1111122 
COMPS,ioos:station:USF.COMPS:ARP:1,2016-11-19T18:24:00Z,28.4330,-82.6670,21.54,1111122 
COMPS,ioos:station:USF.COMPS:ARP:1,2016-11-19T18:30:00Z,28.4330,-82.6670,21.67,1111122 
COMPS,ioos:station:USF.COMPS:ARP:1,2016-11-19T18:36:00Z,28.4330,-82.6670,21.59,1111122 
COMPS,ioos:station:USF.COMPS:ARP:1,2016-11-19T18:42:00Z,28.4330,-82.6670,21.55,1111122 
COMPS,ioos:station:USF.COMPS:ARP:1,2016-11-19T18:48:00Z,28.4330,-82.6670,21.44,1111122 
COMPS,ioos:station:USF.COMPS:ARP:1,2016-11-19T18:54:00Z,28.4330,-82.6670,21.59,1111122 
COMPS,ioos:station:USF.COMPS:ARP:1,2016-11-19T19:00:00Z,28.4330,-82.6670,21.48,1111122 
COMPS,ioos:station:USF.COMPS:ARP:1,2016-11-19T19:06:00Z,28.4330,-82.6670,21.49,1111122 
COMPS,ioos:station:USF.COMPS:ARP:1,2016-11-19T19:12:00Z,28.4330,-82.6670,21.58,1111122 
COMPS,ioos:station:USF.COMPS:ARP:1,2016-11-19T19:18:00Z,28.4330,-82.6670,21.6,1111122 
COMPS,ioos:station:USF.COMPS:ARP:1,2016-11-19T19:24:00Z,28.4330,-82.6670,21.64,1111122 
COMPS,ioos:station:USF.COMPS:ARP:1,2016-11-19T19:30:00Z,28.4330,-82.6670,21.73,1111122 
COMPS,ioos:station:USF.COMPS:ARP:1,2016-11-19T19:36:00Z,28.4330,-82.6670,21.65,1111122 
COMPS,ioos:station:USF.COMPS:ARP:1,2016-11-19T19:42:00Z,28.4330,-82.6670,21.69,1111122 
COMPS,ioos:station:USF.COMPS:ARP:1,2016-11-19T19:48:00Z,28.4330,-82.6670,21.68,1111122 
COMPS,ioos:station:USF.COMPS:ARP:1,2016-11-19T19:54:00Z,28.4330,-82.6670,21.87,1111122 
COMPS,ioos:station:USF.COMPS:ARP:1,2016-11-19T20:00:00Z,28.4330,-82.6670,21.76,1111122 
COMPS,ioos:station:USF.COMPS:ARP:1,2016-11-19T20:06:00Z,28.4330,-82.6670,21.83,1111122 
COMPS,ioos:station:USF.COMPS:ARP:1,2016-11-19T20:12:00Z,28.4330,-82.6670,21.86,1111122 
COMPS,ioos:station:USF.COMPS:ARP:1,2016-11-19T20:18:00Z,28.4330,-82.6670,21.92,1111122 
COMPS,ioos:station:USF.COMPS:ARP:1,2016-11-19T20:24:00Z,28.4330,-82.6670,21.81,1111122 
COMPS,ioos:station:USF.COMPS:ARP:1,2016-11-19T20:30:00Z,28.4330,-82.6670,21.81,1111122 
COMPS,ioos:station:USF.COMPS:ARP:1,2016-11-19T20:36:00Z,28.4330,-82.6670,21.89,1111122 
COMPS,ioos:station:USF.COMPS:ARP:1,2016-11-19T20:42:00Z,28.4330,-82.6670,21.88,1111122 
COMPS,ioos:station:USF.COMPS:ARP:1,2016-11-19T20:48:00Z,28.4330,-82.6670,21.73,1111122 
COMPS,ioos:station:USF.COMPS:ARP:1,2016-11-19T20:54:00Z,28.4330,-82.6670,21.75,1111122 
COMPS,ioos:station:USF.COMPS:ARP:1,2016-11-19T21:00:00Z,28.4330,-82.6670,21.57,1111122 
COMPS,ioos:station:USF.COMPS:ARP:1,2016-11-19T21:06:00Z,28.4330,-82.6670,21.67,1111122 
COMPS,ioos:station:USF.COMPS:ARP:1,2016-11-19T21:12:00Z,28.4330,-82.6670,21.55,1111122 
COMPS,ioos:station:USF.COMPS:ARP:1,2016-11-19T21:18:00Z,28.4330,-82.6670,21.7,1111122 
COMPS,ioos:station:USF.COMPS:ARP:1,2016-11-19T21:24:00Z,28.4330,-82.6670,21.64,1111122 
COMPS,ioos:station:USF.COMPS:ARP:1,2016-11-19T21:30:00Z,28.4330,-82.6670,21.73,1111122 
COMPS,ioos:station:USF.COMPS:ARP:1,2016-11-19T21:36:00Z,28.4330,-82.6670,21.55,1111122 
COMPS,ioos:station:USF.COMPS:ARP:1,2016-11-19T21:42:00Z,28.4330,-82.6670,21.58,1111122 
COMPS,ioos:station:USF.COMPS:ARP:1,2016-11-19T21:48:00Z,28.4330,-82.6670,21.58,1111122 
COMPS,ioos:station:USF.COMPS:ARP:1,2016-11-19T21:54:00Z,28.4330,-82.6670,21.66,1111122 
COMPS,ioos:station:USF.COMPS:ARP:1,2016-11-19T22:00:00Z,28.4330,-82.6670,21.65,1111122 
COMPS,ioos:station:USF.COMPS:ARP:1,2016-11-19T22:06:00Z,28.4330,-82.6670,21.55,1111122 
COMPS,ioos:station:USF.COMPS:ARP:1,2016-11-19T22:12:00Z,28.4330,-82.6670,21.49,1111122 
COMPS,ioos:station:USF.COMPS:ARP:1,2016-11-19T22:18:00Z,28.4330,-82.6670,21.42,1111122 
COMPS,ioos:station:USF.COMPS:ARP:1,2016-11-19T22:24:00Z,28.4330,-82.6670,21.37,1111122 
COMPS,ioos:station:USF.COMPS:ARP:1,2016-11-19T22:30:00Z,28.4330,-82.6670,21.32,1111122 
COMPS,ioos:station:USF.COMPS:ARP:1,2016-11-19T22:36:00Z,28.4330,-82.6670,21.25,1111122 
COMPS,ioos:station:USF.COMPS:ARP:1,2016-11-19T22:42:00Z,28.4330,-82.6670,21.25,1111122 
COMPS,ioos:station:USF.COMPS:ARP:1,2016-11-19T22:48:00Z,28.4330,-82.6670,21.34,1111122 
COMPS,ioos:station:USF.COMPS:ARP:1,2016-11-19T22:54:00Z,28.4330,-82.6670,21.43,1111122 
COMPS,ioos:station:USF.COMPS:ARP:1,2016-11-19T23:00:00Z,28.4330,-82.6670,21.36,1111122 
COMPS,ioos:station:USF.COMPS:ARP:1,2016-11-19T23:06:00Z,28.4330,-82.6670,21.33,1111122 
COMPS,ioos:station:USF.COMPS:ARP:1,2016-11-19T23:12:00Z,28.4330,-82.6670,21.29,1111122 
COMPS,ioos:station:USF.COMPS:ARP:1,2016-11-19T23:18:00Z,28.4330,-82.6670,21.37,1111122 
COMPS,ioos:station:USF.COMPS:ARP:1,2016-11-19T23:24:00Z,28.4330,-82.6670,21.38,1111122 
COMPS,ioos:station:USF.COMPS:ARP:1,2016-11-19T23:30:00Z,28.4330,-82.6670,21.42,1111122 
COMPS,ioos:station:USF.COMPS:ARP:1,2016-11-19T23:36:00Z,28.4330,-82.6670,21.52,1111122 
COMPS,ioos:station:USF.COMPS:ARP:1,2016-11-19T23:42:00Z,28.4330,-82.6670,21.57,1111122 
COMPS,ioos:station:USF.COMPS:ARP:1,2016-11-19T23:48:00Z,28.4330,-82.6670,21.66,1111122 
COMPS,ioos:station:USF.COMPS:ARP:1,2016-11-19T23:54:00Z,28.4330,-82.6670,21.76,1111122 
COMPS,ioos:station:USF.COMPS:ARP:1,2016-11-20T00:00:00Z,28.4330,-82.6670,21.76,1111122 
COMPS,ioos:station:USF.COMPS:ARP:1,2016-11-20T00:06:00Z,28.4330,-82.6670,21.78,1111122 
COMPS,ioos:station:USF.COMPS:ARP:1,2016-11-20T00:12:00Z,28.4330,-82.6670,21.79,1111122 
COMPS,ioos:station:USF.COMPS:ARP:1,2016-11-20T00:18:00Z,28.4330,-82.6670,21.79,1111122 
COMPS,ioos:station:USF.COMPS:ARP:1,2016-11-20T00:24:00Z,28.4330,-82.6670,21.79,1111122 
COMPS,ioos:station:USF.COMPS:ARP:1,2016-11-20T00:30:00Z,28.4330,-82.6670,21.79,1111122 
COMPS,ioos:station:USF.COMPS:ARP:1,2016-11-20T00:36:00Z,28.4330,-82.6670,21.79,1111122 
COMPS,ioos:station:USF.COMPS:ARP:1,2016-11-20T00:42:00Z,28.4330,-82.6670,21.79,1111122 
COMPS,ioos:station:USF.COMPS:ARP:1,2016-11-20T00:48:00Z,28.4330,-82.6670,21.85,1111122 
COMPS,ioos:station:USF.COMPS:ARP:1,2016-11-20T00:54:00Z,28.4330,-82.6670,22.04,1111122 
COMPS,ioos:station:USF.COMPS:ARP:1,2016-11-20T01:00:00Z,28.4330,-82.6670,22.08,1111122 
COMPS,ioos:station:USF.COMPS:ARP:1,2016-11-20T01:06:00Z,28.4330,-82.6670,22.07,1111122 